Simultaneous Nadir Overpasses (SNOs) Predictions

Prediction of SNOs between METOP-B and NOAA-19 Satellite Orbit:

Table of predicted SNOs for the next 14.0 days since TLE Epoch: 3/6/2020
Index Date (METOP-B) Time (METOP-B) Lat,Lon (METOP-B) SZA (METOP-B ) Date (NOAA-19) Time (NOAA-19) Lat,Lon (NOAA-19) SZA (NOAA-19 ) Distance(km) Time Diff (sec)
1 03/14/2020 10:27:31 -79.94,-135.05 97.27 03/14/2020 10:26:21 -79.96,-137.20 97.40 41.71 70
2 03/14/2020 11:18:14 79.86, 31.48 82.59 03/14/2020 11:17:12 79.85, 31.36 82.57 2.47 62
3 03/14/2020 12:08:56 -79.84,-161.38 97.45 03/14/2020 12:08:17 -79.84,-161.27 97.46 2.09 39
4 03/14/2020 12:59:36 79.85, 6.03 82.55 03/14/2020 12:59:12 79.84, 6.06 82.53 1.61 24
5 03/14/2020 13:50:18 -79.83, 173.17 97.50 03/14/2020 13:50:18 -79.85, 173.12 97.48 2.54 0
6 03/14/2020 14:40:58 79.84, -19.43 82.50 03/14/2020 14:41:13 79.85, -19.54 82.51 2.33 15
7 03/14/2020 15:31:40 -79.82, 147.71 97.54 03/14/2020 15:32:18 -79.83, 147.82 97.51 2.86 38
8 03/14/2020 16:22:20 79.83, -44.88 82.46 03/14/2020 16:23:13 79.83, -44.84 82.48 0.95 53




NCC Satellite Simultaneous Nadir Overpasses (SNOs) Prediction Service
